Saginaw, MI

5:34 PM EDT on August 19, 2017 (GMT -0400)
MBS International

Weather History for KMBS - August, 2014

Change the Weather History Date:

Saturday, August 30, 2014

  Actual Average Record
Temperature  
Mean Temperature 76 °F 67 °F  
Max Temperature 83 °F 78 °F 91 °F (2010)
Min Temperature 69 °F 56 °F 46 °F (2003)
Degree Days  
Heating Degree Days 0    
Month to date heating degree days 11  
Since 1 June heating degree days 40  
Since 1 July heating degree days 26  
Cooling Degree Days 11    
Month to date cooling degree days 145  
Year to date cooling degree days 476  
Since 1 June cooling degree days 432  
Growing Degree Days 26 (Base 50)    
Moisture  
Dew Point 67 °F    
Average Humidity 74    
Maximum Humidity 87    
Minimum Humidity 61    
Precipitation  
Precipitation 0.44 in 0.11 in 0.65 in (2013)
Month to date precipitation 4.69 3.19  
Year to date precipitation 22.11 20.40  
Snow  
Snow 0.00 in - - ()
Month to date snowfall 0.0  
Since 1 June snowfall 0.0  
Since 1 July snowfall 0.0  
Snow Depth 0.00 in    
Sea Level Pressure  
Sea Level Pressure 29.87 in    
Wind  
Wind Speed 10 mph (SSW)    
Max Wind Speed 22 mph    
Max Gust Speed 34 mph    
Visibility 10 miles    
Events Rain , Thunderstorm    
T = Trace of Precipitation, MM = Missing Value Source: NWS Daily Summary

Daily Weather History Graph

Daily Weather History Graph

Search for Another Location

Airport or City:

Trip Planner

Search our weather history database for the weather conditions in past years. The results will help you decide how hot, cold, wet, or windy it might be!

Date:

Astronomy

Aug. 30, 2014 Rise Set
Actual Time 6:57 AM EDT 8:15 PM EDT
Civil Twilight 6:28 AM EDT 8:44 PM EDT
Nautical Twilight 5:52 AM EDT 9:20 PM EDT
Astronomical Twilight 5:14 AM EDT 9:57 PM EDT
Moon 11:54 AM EDT (8/30) 10:38 PM EDT (8/30)
Length of Visible Light 14h 16m
Length of Day
13h 17m
Waxing Crescent, 23% of the Moon is Illuminated
Aug 30
Waxing Crescent
Sep 2
First Quarter
Sep 8
Full
Sep 15
Last Quarter
Sep 24
New

Hourly Weather History & Observations

Time (EDT) Temp. Heat Index Dew Point Humidity Pressure Visibility Wind Dir Wind Speed Gust Speed Precip Events Conditions
12:53 AM 71.1 °F - 57.9 °F 63% 29.98 in 10.0 mi South 10.4 mph - N/A   Mostly Cloudy
1:53 AM 70.0 °F - 59.0 °F 68% 29.95 in 10.0 mi SSE 11.5 mph - N/A   Clear
2:53 AM 70.0 °F - 60.1 °F 71% 29.95 in 10.0 mi South 8.1 mph - N/A   Mostly Cloudy
3:53 AM 69.1 °F - 61.0 °F 75% 29.93 in 10.0 mi South 5.8 mph - N/A   Mostly Cloudy
4:53 AM 69.1 °F - 62.1 °F 78% 29.91 in 10.0 mi South 8.1 mph - N/A   Clear
5:53 AM 69.1 °F - 63.0 °F 81% 29.90 in 10.0 mi South 9.2 mph - N/A   Clear
6:53 AM 70.0 °F - 63.0 °F 78% 29.89 in 10.0 mi South 9.2 mph - N/A   Clear
7:53 AM 70.0 °F - 64.0 °F 81% 29.88 in 10.0 mi South 8.1 mph - N/A   Clear
8:53 AM 73.0 °F - 64.9 °F 76% 29.88 in 10.0 mi South 11.5 mph - N/A   Scattered Clouds
9:49 AM 75.2 °F - 66.2 °F 73% 29.91 in 10.0 mi SSW 15.0 mph - 0.00 in Rain , Thunderstorm Light Rain
9:53 AM 73.9 °F - 66.9 °F 79% 29.90 in 10.0 mi SSW 13.8 mph - 0.01 in Rain , Thunderstorm Light Thunderstorms and Rain
9:58 AM 73.9 °F - 66.9 °F 79% 29.91 in 1.8 mi SW 15.0 mph - 0.02 in Rain , Thunderstorm Light Thunderstorms and Rain
10:13 AM 72.0 °F - 68.0 °F 87% 29.90 in 10.0 mi SSW 8.1 mph 18.4 mph 0.08 in Rain , Thunderstorm Light Thunderstorms and Rain
10:20 AM 72.0 °F - 68.0 °F 87% 29.90 in 10.0 mi SSW 8.1 mph - 0.09 in Rain , Thunderstorm Light Rain
10:30 AM 72.0 °F - 68.0 °F 87% 29.90 in 10.0 mi South 10.4 mph - 0.09 in Rain Light Rain
10:53 AM 73.0 °F - 68.0 °F 84% 29.90 in 10.0 mi SSW 10.4 mph - 0.11 in Rain Rain
11:53 AM 75.0 °F - 69.1 °F 82% 29.88 in 10.0 mi SSW 10.4 mph - 0.05 in   Overcast
12:53 PM 78.1 °F - 71.1 °F 79% 29.87 in 10.0 mi SSW 10.4 mph - 0.00 in   Scattered Clouds
1:11 PM 78.1 °F - 70.0 °F 76% 29.88 in 10.0 mi SSW 13.8 mph - N/A   Mostly Cloudy
1:53 PM 79.0 °F - 70.0 °F 74% 29.87 in 10.0 mi SSW 12.7 mph - N/A   Overcast
2:27 PM 80.1 °F 83.6 °F 71.1 °F 74% 29.86 in 10.0 mi SSW 10.4 mph - N/A   Scattered Clouds
2:53 PM 82.0 °F 86.3 °F 71.1 °F 69% 29.84 in 10.0 mi South 12.7 mph - N/A   Scattered Clouds
3:53 PM 82.0 °F 86.3 °F 71.1 °F 69% 29.81 in 10.0 mi South 13.8 mph 21.9 mph N/A   Partly Cloudy
4:45 PM 80.1 °F 83.2 °F 70.0 °F 71% 29.82 in 10.0 mi South 10.4 mph - N/A Thunderstorm Overcast
4:53 PM 80.1 °F 83.2 °F 70.0 °F 71% 29.80 in 10.0 mi South 11.5 mph - N/A Thunderstorm Overcast
5:03 PM 79.0 °F - 70.0 °F 74% 29.86 in 10.0 mi West 20.7 mph 26.5 mph 0.03 in Rain , Thunderstorm Light Thunderstorms and Rain
5:18 PM 72.0 °F - 66.9 °F 84% 29.83 in 10.0 mi South 15.0 mph 19.6 mph 0.27 in Rain , Thunderstorm Light Rain
5:48 PM 73.4 °F - 69.8 °F 88% 29.82 in 10.0 mi SSW 9.2 mph - 0.27 in Rain Light Rain
5:53 PM 75.0 °F - 69.1 °F 82% 29.81 in 10.0 mi SSW 9.2 mph - 0.27 in Rain Light Rain
6:53 PM 77.0 °F - 71.1 °F 82% 29.80 in 10.0 mi South 10.4 mph - 0.00 in   Partly Cloudy
7:53 PM 75.9 °F - 70.0 °F 82% 29.81 in 10.0 mi SW 9.2 mph - N/A   Partly Cloudy
8:53 PM 75.9 °F - 69.1 °F 79% 29.83 in 10.0 mi SW 10.4 mph - N/A   Mostly Cloudy
9:53 PM 75.0 °F - 69.1 °F 82% 29.85 in 10.0 mi SW 9.2 mph - N/A   Scattered Clouds
10:53 PM 73.9 °F - 69.1 °F 85% 29.84 in 10.0 mi SSW 5.8 mph - N/A   Clear
11:53 PM 73.9 °F - 69.1 °F 85% 29.86 in 10.0 mi SSW 8.1 mph - N/A   Mostly Cloudy